Regional Weather Roundup
Issued by NWS

Home | Current Version | Previous Version | Graphics & Text | Print | Product List | Glossary On
Versions: 1 2 3 4 5 6 7 8 9 10 11 12 13 14 15 16 17 18 19 20 21 22 23 24 25 26 27 28 29 30 31 32 33 34 35 36 37 38 39 40 41 42 43 44 45 46 47 48 49 50
000
ASUS43 KLMK 270710
RWRKY
KENTUCKY REGIONAL WEATHER ROUNDUP
NATIONAL WEATHER SERVICE LOUISVILLE KY
300 AM EDT TUE SEP 27 2016

NOTE "FAIR" INDICATES FEW OR NO CLOUDS BELOW 12,000 FEET
WITH NO SIGNIFICANT WEATHER AND/OR OBSTRUCTIONS TO VISIBILITY.

KYZ001>023-026-027-061>063-070>075-270800-
WESTERN AND SOUTH CENTRAL KENTUCKY

CITY           SKY/WX    TMP DP  RH WIND       PRES   REMARKS
PADUCAH        CLEAR     49  47  93 CALM      30.08F
HENDERSON      CLEAR     48  45  87 SW3       30.07S
OWENSBORO      NOT AVBL
HOPKINSVILLE   CLEAR     54  52  94 CALM      30.07F FOG
BOWLING GREEN  FOG       51  49  92 CALM      30.08S VSB 1/4
GLASGOW        MOCLDY   N/A N/A N/A CALM      30.08S FOG
$$

KYZ024-025-028>034-038-045-046-053-270800-
NORTH CENTRAL KENTUCKY

CITY           SKY/WX    TMP DP  RH WIND       PRES   REMARKS
LOUISVILLE/SDF CLEAR     58  52  80 SW5       30.06S
LOUISVILLE/LOU CLEAR     54  51  90 CALM      30.07R
FORT KNOX      CLEAR     50  50 100 CALM      30.06S FOG
$$

KYZ035>037-039>044-047>052-055>060-089>105-270800-
NORTHEAST KENTUCKY

CITY           SKY/WX    TMP DP  RH WIND       PRES   REMARKS
LEXINGTON      CLEAR     52  49  89 S6        30.07S
COVINGTON      CLEAR     54  51  90 SW3       30.03F
FRANKFORT      CLEAR     53  49  86 SW3       30.06S
$$

KYZ054-064>069-076>088-106>120-270800-
SOUTHEAST KENTUCKY

CITY           SKY/WX    TMP DP  RH WIND       PRES   REMARKS
JACKSON        PTCLDY    54  52  93 CALM      30.08F FOG
LONDON         CLEAR     53  51  93 CALM      30.08F
SOMERSET         N/A     52  52 100 CALM      30.10S FOG
MIDDLESBORO    CLOUDY    65  61  88 NW8       30.07S
MONTICELLO     FOG       47  47 100 NE8       30.10F VSB 1/4
$$





USA.gov is the U.S. government's official web portal to all federal, state and local government web resources and services.